Flag for Tunisia Weather past 2 weeks in Tunis, Tunisia

Now
84 °F

Passing clouds.


Feels Like: 90 °F
Forecast: 77 / 95 °F
Wind: 9 mph from East

Location: Tunis-Carthage

Current Time: Aug 27, 2015 at 8:40:07 PM

Latest Report: Aug 27, 2015 at 8:00 PM


Visibility: N/A

Pressure: 29.98 "Hg

Humidity: 66%

Dew point: 72 °F

Location of TunisLocation

Historic Weather in Tunis — Graph

°F

Tunis temperature yesterday

Maximum temperature yesterday: 91 °F (at 1:30 PM)
Minimum temperature yesterday: 75 °F (at 3:30 AM)
Average temperature yesterday: 82 °F

Past Weeks' High & Low Weather Summary

 TemperatureHumidityPressure
High100 °F (Aug 24, 1:00 PM)94% (Aug 22, 4:00 AM)30.15 "Hg (Aug 22, 4:00 AM)
Low66 °F (Aug 22, 6:00 AM)23% (Aug 15, 12:00 PM)29.80 "Hg (Aug 18, 3:30 PM)
Average82 °F63%29.97 "Hg
* Reported Aug 12 6:00 PM — Aug 27 6:30 PM, Tunis, Weather by CustomWeather, © 2015

Note: Actual official high and low records may vary slightly from our data, if they occured in-between our weather recording intervals... More about our weather records

Advertising

Tunis weather history for previous 24 hours

 ConditionsComfort  
Time TempWeatherWind HumidityBarometerVisibility
6:30 PM
Thu, Aug 27
88 °FPassing clouds.9 mph55%29.95 "HgN/A
6:00 PM88 °FPassing clouds.6 mph55%29.95 "HgN/A
5:30 PM88 °FPassing clouds.6 mph59%29.95 "HgN/A
5:00 PM88 °FPassing clouds.12 mph59%29.95 "HgN/A
4:30 PM88 °FPassing clouds.13 mph52%29.95 "HgN/A
4:00 PM88 °FPassing clouds.10 mph52%29.95 "HgN/A
3:30 PM90 °FPassing clouds.12 mph49%29.95 "HgN/A
3:00 PM90 °FPassing clouds.10 mph52%29.95 "HgN/A
2:30 PM90 °FPassing clouds.10 mph52%29.98 "HgN/A
2:00 PM90 °FPassing clouds.9 mph55%29.98 "HgN/A
1:30 PM90 °FPassing clouds.9 mph55%29.98 "HgN/A
1:00 PM90 °FPassing clouds.8 mph59%29.98 "HgN/A
12:30 PM88 °FPassing clouds.8 mph62%29.98 "HgN/A
12:00 PM88 °FPassing clouds.7 mph59%30.01 "HgN/A
11:30 AM86 °FScattered clouds.5 mph62%30.01 "HgN/A
10:30 AM86 °FPassing clouds.5 mph59%30.01 "HgN/A
10:00 AM86 °FPassing clouds.6 mph59%30.01 "HgN/A
9:30 AM86 °FPassing clouds.3 mph59%30.01 "HgN/A
9:00 AM84 °FSunny.2 mph62%30.01 "Hg10 mi
8:30 AM82 °FPassing clouds.3 mph66%30.01 "HgN/A
8:00 AM82 °FPassing clouds.3 mph70%30.01 "HgN/A
7:30 AM81 °FPassing clouds.3 mph79%30.01 "HgN/A
7:00 AM79 °FPassing clouds.5 mph84%29.98 "HgN/A
6:30 AM79 °FPassing clouds.3 mph84%29.98 "HgN/A
6:00 AM79 °FPassing clouds.5 mph84%29.98 "HgN/A
5:30 AM77 °FPassing clouds.3 mph89%29.98 "HgN/A
5:00 AM77 °FPassing clouds.5 mph89%29.95 "HgN/A
4:30 AM77 °FPassing clouds.3 mph89%29.95 "HgN/A
4:00 AM77 °FPassing clouds.3 mph83%29.95 "HgN/A
3:30 AM77 °FClear.No wind79%29.98 "Hg10 mi
3:00 AM77 °FClear.No wind79%29.98 "Hg10 mi
2:30 AM79 °FClear.2 mph74%29.98 "Hg10 mi
2:00 AM79 °FClear.3 mph74%29.98 "Hg10 mi
1:00 AM79 °FPassing clouds.3 mph79%29.98 "HgN/A
12:30 AM79 °FPassing clouds.3 mph79%29.98 "HgN/A
12:00 AM79 °FPassing clouds.No wind79%29.98 "HgN/A
11:30 PM
Wed, Aug 26
79 °FPassing clouds.2 mph74%29.98 "HgN/A
10:30 PM81 °FPassing clouds.6 mph74%29.98 "HgN/A
10:00 PM81 °FPassing clouds.6 mph74%29.98 "HgN/A
9:30 PM81 °FPassing clouds.6 mph74%29.98 "HgN/A
9:00 PM81 °FPassing clouds.6 mph70%29.98 "HgN/A
8:30 PM81 °FPassing clouds.5 mph70%30.01 "HgN/A
8:00 PM81 °FPassing clouds.7 mph74%29.98 "HgN/A
Weather by CustomWeather, © 2015

See weather overviewHow to use our weather pages